Погода в Свакопмунде

Намибия     22°39′36″S   14°32′34″E
темп.,
°C
ветер,
м/с
пор.,
м/с
влажн.,
%
обл.,
%
осадки,
мм/ч
давл.,
гПа
погр.,
м
26 июля, пн
пн2623:00+19ююв33415 0.0 101715
02:00+20св444358 0.0 101716
05:00+21св694130 0.0 101667
08:00+21всв1015410 0.0 1017123
11:00+24св1013350 0.0 1018192
14:00+21з36450 0.0 1016590
17:00+19зюз34580 0.0 101440
20:00+18ю67640 0.0 101654
27 июля, вт
вт2723:00+18ю33550 0.0 101714
02:00+18ю22520 0.0 101611
05:00+18ссв33480 0.0 101512
08:00+16ююз33610 0.0 101718
11:00+20с35410 0.0 1018175
14:00+18юз66570 0.0 1016108
17:00+17ююз710650 0.0 1015127
20:00+16ю68720 0.0 101678
28 июля, ср
ср2823:00+15ююз67730 0.0 101768
02:00+14ююз56770 0.0 101768
05:00+14ююз46840 0.0 101799
08:00+14ю34830 0.0 101874
11:00+16ююз55690 0.0 1020121
14:00+15юз897411 0.0 1018185
17:00+17ююз1013640 0.0 1016195
20:00+15ююз811680 0.0 1018121
29 июля, чт
чт2923:00+14ю68750 0.0 1019100
02:00+14ююз56790 0.0 101975
05:00+13ю56860 0.0 1018122
08:00+14ююз33770 0.0 102061
11:00+15ююз45710 0.0 1021116
14:00+15юз67697 0.0 1018109
17:00+17ююз710610 0.0 1016124
20:00+16ю69670 0.0 101779
30 июля, пт
пт3023:00+16ю22590 0.0 101820
02:00+16ююз33590 0.0 101816
05:00+18св45430 0.0 101821
08:00+21всв69310 0.0 101971
11:00+26всв1015230 0.0 1020252
14:00+27всв79230 0.0 1018473
17:00+26св24260 0.0 1016629
20:00+19ююз78490 0.0 101747